date,time,SUV Intensity [MED/Hr],UV Index,Daily total [MED],Since Last [MED]
09/10/2023,00:02:10,0.000,0.0,0.0,0.0
09/10/2023,00:03:10,0.000,0.0,0.0,0.0
09/10/2023,00:04:09,0.000,0.0,0.0,0.0
09/10/2023,00:05:10,-0.000,0.0,0.0,0.0
09/10/2023,00:06:10,0.000,0.0,0.0,0.0
09/10/2023,00:07:09,0.000,0.0,0.0,0.0
09/10/2023,00:08:09,-0.001,0.0,0.0,0.0
09/10/2023,00:09:10,0.000,0.0,0.0,0.0
09/10/2023,00:10:10,0.000,0.0,0.0,0.0
09/10/2023,00:11:09,0.000,0.0,0.0,0.0
09/10/2023,00:12:09,0.000,0.0,0.0,0.0
09/10/2023,00:13:10,0.000,0.0,0.0,0.0
09/10/2023,00:14:10,0.000,0.0,0.0,0.0
09/10/2023,00:15:09,0.000,0.0,0.0,0.0
09/10/2023,00:16:10,0.000,0.0,0.0,0.0
09/10/2023,00:17:09,0.000,0.0,0.0,0.0
09/10/2023,00:18:10,0.000,0.0,0.0,0.0
09/10/2023,00:19:09,0.000,0.0,0.0,0.0
09/10/2023,00:20:09,0.000,0.0,0.0,0.0
09/10/2023,00:21:10,0.000,0.0,0.0,0.0
09/10/2023,00:22:10,0.000,0.0,0.0,0.0
09/10/2023,00:23:09,0.000,0.0,0.0,0.0
09/10/2023,00:24:10,0.000,0.0,0.0,0.0
09/10/2023,00:25:10,0.000,0.0,0.0,0.0
09/10/2023,00:26:09,0.000,0.0,0.0,0.0
09/10/2023,00:27:10,0.000,0.0,0.0,0.0
09/10/2023,00:28:10,0.000,0.0,0.0,0.0
09/10/2023,00:29:10,0.000,0.0,0.0,0.0
09/10/2023,00:30:10,0.000,0.0,0.0,0.0
09/10/2023,00:31:09,0.000,0.0,0.0,0.0
09/10/2023,00:32:10,0.000,0.0,0.0,0.0
09/10/2023,00:33:10,0.000,0.0,0.0,0.0
09/10/2023,00:34:09,0.000,0.0,0.0,0.0
09/10/2023,00:35:10,0.000,0.0,0.0,0.0
09/10/2023,00:36:09,0.000,0.0,0.0,0.0
09/10/2023,00:37:10,0.000,0.0,0.0,0.0
09/10/2023,00:38:09,0.000,0.0,0.0,0.0
09/10/2023,00:39:10,0.000,0.0,0.0,0.0
09/10/2023,00:40:10,0.000,0.0,0.0,0.0
09/10/2023,00:41:09,0.000,0.0,0.0,0.0
09/10/2023,00:42:10,0.000,0.0,0.0,0.0
09/10/2023,00:43:09,0.000,0.0,0.0,0.0
09/10/2023,00:44:10,0.000,0.0,0.0,0.0
09/10/2023,00:45:09,0.000,0.0,0.0,0.0
09/10/2023,00:46:10,0.000,0.0,0.0,0.0
09/10/2023,00:47:10,-0.001,0.0,0.0,0.0
09/10/2023,00:48:10,0.000,0.0,0.0,0.0
09/10/2023,00:49:09,0.000,0.0,0.0,0.0
09/10/2023,00:50:10,0.000,0.0,0.0,0.0
09/10/2023,00:51:09,0.000,0.0,0.0,0.0
09/10/2023,00:52:10,0.000,0.0,0.0,0.0
09/10/2023,00:53:10,0.000,0.0,0.0,0.0
09/10/2023,00:54:10,0.000,0.0,0.0,0.0
09/10/2023,00:55:09,0.000,0.0,0.0,0.0
09/10/2023,00:56:09,0.000,0.0,0.0,0.0
09/10/2023,00:57:10,0.000,0.0,0.0,0.0
09/10/2023,00:58:10,0.000,0.0,0.0,0.0
09/10/2023,00:59:09,0.000,0.0,0.0,0.0
09/10/2023,01:00:11,0.000,0.0,0.0,0.0
09/10/2023,01:01:10,0.000,0.0,0.0,0.0
09/10/2023,01:02:09,0.000,0.0,0.0,0.0
09/10/2023,01:03:09,0.000,0.0,0.0,0.0
09/10/2023,01:04:10,0.000,0.0,0.0,0.0
09/10/2023,01:05:10,0.000,0.0,0.0,0.0
09/10/2023,01:06:10,0.000,0.0,0.0,0.0
09/10/2023,01:07:09,0.000,0.0,0.0,0.0
09/10/2023,01:08:10,0.000,0.0,0.0,0.0
09/10/2023,01:09:09,0.000,0.0,0.0,0.0
09/10/2023,01:10:10,0.000,0.0,0.0,0.0
09/10/2023,01:11:10,0.000,0.0,0.0,0.0
09/10/2023,01:12:10,0.000,0.0,0.0,0.0
09/10/2023,01:13:10,0.000,0.0,0.0,0.0
09/10/2023,01:14:09,0.000,0.0,0.0,0.0
09/10/2023,01:15:10,0.000,0.0,0.0,0.0
09/10/2023,01:16:10,0.000,0.0,0.0,0.0
09/10/2023,01:17:09,0.000,0.0,0.0,0.0
09/10/2023,01:18:10,-0.001,0.0,0.0,0.0
09/10/2023,01:19:09,0.000,0.0,0.0,0.0
09/10/2023,01:20:09,0.000,0.0,0.0,0.0
09/10/2023,01:21:10,0.000,0.0,0.0,0.0
09/10/2023,01:22:10,0.000,0.0,0.0,0.0
09/10/2023,01:23:10,0.000,0.0,0.0,0.0
09/10/2023,01:24:10,0.000,0.0,0.0,0.0
09/10/2023,01:25:09,0.000,0.0,0.0,0.0
09/10/2023,01:26:09,0.000,0.0,0.0,0.0
09/10/2023,01:27:10,0.000,0.0,0.0,0.0
09/10/2023,01:28:10,0.000,0.0,0.0,0.0
09/10/2023,01:29:09,-0.001,0.0,0.0,0.0
09/10/2023,01:30:09,0.000,0.0,0.0,0.0
09/10/2023,01:31:10,0.000,0.0,0.0,0.0
09/10/2023,01:32:10,0.000,0.0,0.0,0.0
09/10/2023,01:33:10,0.000,0.0,0.0,0.0
09/10/2023,01:34:10,0.000,0.0,0.0,0.0
09/10/2023,01:35:09,0.000,0.0,0.0,0.0
09/10/2023,01:36:10,0.000,0.0,0.0,0.0
09/10/2023,01:37:10,0.000,0.0,0.0,0.0
09/10/2023,01:38:10,0.000,0.0,0.0,0.0
09/10/2023,01:39:10,0.000,0.0,0.0,0.0
09/10/2023,01:40:10,0.000,0.0,0.0,0.0
09/10/2023,01:41:10,0.000,0.0,0.0,0.0
09/10/2023,01:42:10,0.000,0.0,0.0,0.0
09/10/2023,01:43:10,0.000,0.0,0.0,0.0
09/10/2023,01:44:10,0.000,0.0,0.0,0.0
09/10/2023,01:45:09,0.000,0.0,0.0,0.0
09/10/2023,01:46:10,0.000,0.0,0.0,0.0
09/10/2023,01:47:10,0.000,0.0,0.0,0.0
09/10/2023,01:48:09,0.000,0.0,0.0,0.0
09/10/2023,01:49:10,0.000,0.0,0.0,0.0
09/10/2023,01:50:09,0.000,0.0,0.0,0.0
09/10/2023,01:51:10,0.000,0.0,0.0,0.0
09/10/2023,01:52:10,0.000,0.0,0.0,0.0
09/10/2023,01:53:10,0.000,0.0,0.0,0.0
09/10/2023,01:54:09,0.000,0.0,0.0,0.0
09/10/2023,01:55:09,0.000,0.0,0.0,0.0
09/10/2023,01:56:10,0.000,0.0,0.0,0.0
09/10/2023,01:57:08,0.000,0.0,0.0,0.0
09/10/2023,01:58:10,0.000,0.0,0.0,0.0
09/10/2023,01:59:09,0.000,0.0,0.0,0.0
09/10/2023,02:00:09,0.000,0.0,0.0,0.0
09/10/2023,02:01:10,0.000,0.0,0.0,0.0
09/10/2023,02:02:11,0.000,0.0,0.0,0.0
09/10/2023,02:03:10,0.000,0.0,0.0,0.0
09/10/2023,02:04:10,0.000,0.0,0.0,0.0
09/10/2023,02:05:10,0.000,0.0,0.0,0.0
09/10/2023,02:06:10,0.000,0.0,0.0,0.0
09/10/2023,02:07:10,0.000,0.0,0.0,0.0
09/10/2023,02:08:10,0.000,0.0,0.0,0.0
09/10/2023,02:09:10,0.000,0.0,0.0,0.0
09/10/2023,02:10:10,0.000,0.0,0.0,0.0
09/10/2023,02:11:10,0.000,0.0,0.0,0.0
09/10/2023,02:12:10,0.000,0.0,0.0,0.0
09/10/2023,02:13:10,0.000,0.0,0.0,0.0
09/10/2023,02:14:10,0.000,0.0,0.0,0.0
09/10/2023,02:15:10,0.000,0.0,0.0,0.0
09/10/2023,02:16:10,0.000,0.0,0.0,0.0
09/10/2023,02:17:10,0.001,0.0,0.0,0.0
09/10/2023,02:18:10,0.000,0.0,0.0,0.0
09/10/2023,02:19:10,0.000,0.0,0.0,0.0
09/10/2023,02:20:11,0.000,0.0,0.0,0.0
09/10/2023,02:21:10,0.000,0.0,0.0,0.0
09/10/2023,02:22:10,0.000,0.0,0.0,0.0
09/10/2023,02:23:10,0.000,0.0,0.0,0.0
09/10/2023,02:24:10,0.001,0.0,0.0,0.0
09/10/2023,02:25:09,0.000,0.0,0.0,0.0
09/10/2023,02:26:09,0.000,0.0,0.0,0.0
09/10/2023,02:27:10,0.000,0.0,0.0,0.0
09/10/2023,02:28:10,0.000,0.0,0.0,0.0
09/10/2023,02:29:10,0.000,0.0,0.0,0.0
09/10/2023,02:30:10,0.000,0.0,0.0,0.0
09/10/2023,02:31:10,0.000,0.0,0.0,0.0
09/10/2023,02:32:10,0.000,0.0,0.0,0.0
09/10/2023,02:33:09,0.000,0.0,0.0,0.0
09/10/2023,02:34:10,0.000,0.0,0.0,0.0
09/10/2023,02:35:10,0.001,0.0,0.0,0.0
09/10/2023,02:36:09,0.000,0.0,0.0,0.0
09/10/2023,02:37:10,0.000,0.0,0.0,0.0
09/10/2023,02:38:10,0.000,0.0,0.0,0.0
09/10/2023,02:39:10,0.000,0.0,0.0,0.0
09/10/2023,02:40:10,0.000,0.0,0.0,0.0
09/10/2023,02:41:10,0.000,0.0,0.0,0.0
09/10/2023,02:42:10,0.000,0.0,0.0,0.0
09/10/2023,02:43:10,0.000,0.0,0.0,0.0
09/10/2023,02:44:10,0.000,0.0,0.0,0.0
09/10/2023,02:45:10,0.000,0.0,0.0,0.0
09/10/2023,02:46:09,0.000,0.0,0.0,0.0
09/10/2023,02:47:10,0.000,0.0,0.0,0.0
09/10/2023,02:48:10,0.000,0.0,0.0,0.0
09/10/2023,02:49:10,0.000,0.0,0.0,0.0
09/10/2023,02:50:10,0.000,0.0,0.0,0.0
09/10/2023,02:51:10,0.000,0.0,0.0,0.0
09/10/2023,02:52:10,0.000,0.0,0.0,0.0
09/10/2023,02:53:10,0.000,0.0,0.0,0.0
09/10/2023,02:54:10,0.000,0.0,0.0,0.0
09/10/2023,02:55:10,0.000,0.0,0.0,0.0
09/10/2023,02:56:10,0.000,0.0,0.0,0.0
09/10/2023,02:57:10,0.000,0.0,0.0,0.0
09/10/2023,02:58:10,0.000,0.0,0.0,0.0
09/10/2023,02:59:10,0.000,0.0,0.0,0.0
09/10/2023,03:00:10,0.000,0.0,0.0,0.0
09/10/2023,03:01:10,0.000,0.0,0.0,0.0
09/10/2023,03:02:10,0.000,0.0,0.0,0.0
09/10/2023,03:03:10,0.000,0.0,0.0,0.0
09/10/2023,03:04:10,0.000,0.0,0.0,0.0
09/10/2023,03:05:10,0.000,0.0,0.0,0.0
09/10/2023,03:06:10,0.000,0.0,0.0,0.0
09/10/2023,03:07:10,0.000,0.0,0.0,0.0
09/10/2023,03:08:10,0.000,0.0,0.0,0.0
09/10/2023,03:09:10,0.000,0.0,0.0,0.0
09/10/2023,03:10:10,0.000,0.0,0.0,0.0
09/10/2023,03:11:10,0.000,0.0,0.0,0.0
09/10/2023,03:12:10,0.000,0.0,0.0,0.0
09/10/2023,03:13:10,0.000,0.0,0.0,0.0
09/10/2023,03:14:10,0.000,0.0,0.0,0.0
09/10/2023,03:15:10,0.000,0.0,0.0,0.0
09/10/2023,03:16:09,0.000,0.0,0.0,0.0
09/10/2023,03:17:10,0.000,0.0,0.0,0.0
09/10/2023,03:18:10,0.000,0.0,0.0,0.0
09/10/2023,03:19:09,0.000,0.0,0.0,0.0
09/10/2023,03:20:10,0.000,0.0,0.0,0.0
09/10/2023,03:21:10,0.000,0.0,0.0,0.0
09/10/2023,03:22:10,0.000,0.0,0.0,0.0
09/10/2023,03:23:10,0.000,0.0,0.0,0.0
09/10/2023,03:24:10,0.000,0.0,0.0,0.0
09/10/2023,03:25:10,0.000,0.0,0.0,0.0
09/10/2023,03:26:10,0.000,0.0,0.0,0.0
09/10/2023,03:27:10,0.000,0.0,0.0,0.0
09/10/2023,03:28:10,0.000,0.0,0.0,0.0
09/10/2023,03:29:09,0.000,0.0,0.0,0.0
09/10/2023,03:30:10,0.000,0.0,0.0,0.0
09/10/2023,03:31:10,0.000,0.0,0.0,0.0
09/10/2023,03:32:10,0.000,0.0,0.0,0.0
09/10/2023,03:33:10,0.000,0.0,0.0,0.0
09/10/2023,03:34:10,0.000,0.0,0.0,0.0
09/10/2023,03:35:10,0.000,0.0,0.0,0.0
09/10/2023,03:36:10,0.000,0.0,0.0,0.0
09/10/2023,03:37:10,0.000,0.0,0.0,0.0
09/10/2023,03:38:10,0.001,0.0,0.0,0.0
09/10/2023,03:39:10,0.001,0.0,0.0,0.0
09/10/2023,03:40:10,0.000,0.0,0.0,0.0
09/10/2023,03:41:10,0.000,0.0,0.0,0.0
09/10/2023,03:42:10,0.001,0.0,0.0,0.0
09/10/2023,03:43:10,0.001,0.0,0.0,0.0
09/10/2023,03:44:10,0.001,0.0,0.0,0.0
09/10/2023,03:45:10,0.001,0.0,0.0,0.0
09/10/2023,03:46:10,0.001,0.0,0.0,0.0
09/10/2023,03:47:10,0.000,0.0,0.0,0.0
09/10/2023,03:48:10,0.001,0.0,0.0,0.0
09/10/2023,03:49:10,0.001,0.0,0.0,0.0
09/10/2023,03:50:10,0.001,0.0,0.0,0.0
09/10/2023,03:51:10,0.001,0.0,0.0,0.0
09/10/2023,03:52:10,0.000,0.0,0.0,0.0
09/10/2023,03:53:10,0.001,0.0,0.0,0.0
09/10/2023,03:54:10,0.001,0.0,0.0,0.0
09/10/2023,03:55:10,0.001,0.0,0.0,0.0
09/10/2023,03:56:10,0.001,0.0,0.0,0.0
09/10/2023,03:57:09,0.001,0.0,0.0,0.0
09/10/2023,03:58:32,0.001,0.0,0.0,0.0
09/10/2023,03:59:10,0.001,0.0,0.0,0.0
09/10/2023,04:00:10,0.001,0.0,0.0,0.0
09/10/2023,04:01:10,0.001,0.0,0.0,0.0
09/10/2023,04:02:10,0.000,0.0,0.0,0.0
09/10/2023,04:03:10,0.002,0.0,0.0,0.0
09/10/2023,04:04:10,0.001,0.0,0.0,0.0
09/10/2023,04:05:10,0.001,0.0,0.0,0.0
09/10/2023,04:06:10,0.001,0.0,0.0,0.0
09/10/2023,04:07:10,0.001,0.0,0.0,0.0
09/10/2023,04:08:10,0.000,0.0,0.0,0.0
09/10/2023,04:09:10,0.002,0.0,0.0,0.0
09/10/2023,04:10:10,0.001,0.0,0.0,0.0
09/10/2023,04:11:11,0.001,0.0,0.0,0.0
09/10/2023,04:12:11,0.001,0.0,0.0,0.0
09/10/2023,04:13:11,0.001,0.0,0.0,0.0
09/10/2023,04:14:10,0.002,0.0,0.0,0.0
09/10/2023,04:15:10,0.000,0.0,0.0,0.0
09/10/2023,04:16:10,0.000,0.0,0.0,0.0
09/10/2023,04:17:10,0.001,0.0,0.0,0.0
09/10/2023,04:18:10,0.001,0.0,0.0,0.0
09/10/2023,04:19:10,0.001,0.0,0.0,0.0
09/10/2023,04:20:10,0.000,0.0,0.0,0.0
09/10/2023,04:21:10,0.001,0.0,0.0,0.0
09/10/2023,04:22:10,0.001,0.0,0.0,0.0
09/10/2023,04:23:11,0.002,0.0,0.0,0.0
09/10/2023,04:24:10,0.000,0.0,0.0,0.0
09/10/2023,04:25:10,0.000,0.0,0.0,0.0
09/10/2023,04:26:10,0.001,0.0,0.0,0.0
09/10/2023,04:27:10,0.001,0.0,0.0,0.0
09/10/2023,04:28:10,0.000,0.0,0.0,0.0
09/10/2023,04:29:10,0.001,0.0,0.0,0.0
09/10/2023,04:30:10,0.000,0.0,0.0,0.0
09/10/2023,04:31:10,0.001,0.0,0.0,0.0
09/10/2023,04:32:10,0.001,0.0,0.0,0.0
09/10/2023,04:33:10,0.001,0.0,0.0,0.0
09/10/2023,04:34:10,0.000,0.0,0.0,0.0
09/10/2023,04:35:10,0.001,0.0,0.0,0.0
09/10/2023,04:36:10,0.001,0.0,0.0,0.0
09/10/2023,04:37:10,0.001,0.0,0.0,0.0
09/10/2023,04:38:10,0.001,0.0,0.0,0.0
09/10/2023,04:39:10,0.000,0.0,0.0,0.0
09/10/2023,04:40:11,0.000,0.0,0.0,0.0
09/10/2023,04:41:10,0.001,0.0,0.0,0.0
09/10/2023,04:42:10,0.000,0.0,0.0,0.0
09/10/2023,04:43:10,0.001,0.0,0.0,0.0
09/10/2023,04:44:10,0.000,0.0,0.0,0.0
09/10/2023,04:45:10,0.000,0.0,0.0,0.0
09/10/2023,04:46:10,0.001,0.0,0.0,0.0
09/10/2023,04:47:10,0.001,0.0,0.0,0.0
09/10/2023,04:48:10,0.001,0.0,0.0,0.0
09/10/2023,04:49:10,0.000,0.0,0.0,0.0
09/10/2023,04:50:10,0.000,0.0,0.0,0.0
09/10/2023,04:51:10,0.001,0.0,0.0,0.0
09/10/2023,04:52:10,0.001,0.0,0.0,0.0
09/10/2023,04:53:10,0.000,0.0,0.0,0.0
09/10/2023,04:54:10,0.001,0.0,0.0,0.0
09/10/2023,04:55:10,0.000,0.0,0.0,0.0
09/10/2023,04:56:11,0.001,0.0,0.0,0.0
09/10/2023,04:57:10,0.001,0.0,0.0,0.0
09/10/2023,04:58:10,0.001,0.0,0.0,0.0
09/10/2023,04:59:10,0.001,0.0,0.0,0.0
09/10/2023,05:00:10,0.001,0.0,0.0,0.0
09/10/2023,05:01:10,0.000,0.0,0.0,0.0
09/10/2023,05:02:10,0.001,0.0,0.0,0.0
09/10/2023,05:03:10,0.001,0.0,0.0,0.0
09/10/2023,05:04:10,0.001,0.0,0.0,0.0
09/10/2023,05:05:10,0.001,0.0,0.0,0.0
09/10/2023,05:06:10,0.001,0.0,0.0,0.0
09/10/2023,05:07:10,0.001,0.0,0.0,0.0
09/10/2023,05:08:10,0.001,0.0,0.0,0.0
09/10/2023,05:09:10,0.001,0.0,0.0,0.0
09/10/2023,05:10:11,0.000,0.0,0.0,0.0
09/10/2023,05:11:10,0.001,0.0,0.0,0.0
09/10/2023,05:12:10,0.001,0.0,0.0,0.0
09/10/2023,05:13:10,0.001,0.0,0.0,0.0
09/10/2023,05:14:10,0.001,0.0,0.0,0.0
09/10/2023,05:15:11,0.001,0.0,0.0,0.0
09/10/2023,05:16:10,0.001,0.0,0.0,0.0
09/10/2023,05:17:10,0.001,0.0,0.0,0.0
09/10/2023,05:18:10,0.001,0.0,0.0,0.0
09/10/2023,05:19:10,0.001,0.0,0.0,0.0
09/10/2023,05:20:11,0.001,0.0,0.0,0.0
09/10/2023,05:21:11,0.000,0.0,0.0,0.0
09/10/2023,05:22:11,0.001,0.0,0.0,0.0
09/10/2023,05:23:10,0.000,0.0,0.0,0.0
09/10/2023,05:24:10,0.001,0.0,0.0,0.0
09/10/2023,05:25:11,0.000,0.0,0.0,0.0
09/10/2023,05:26:10,0.001,0.0,0.0,0.0
09/10/2023,05:27:11,0.000,0.0,0.0,0.0
09/10/2023,05:28:10,0.001,0.0,0.0,0.0
09/10/2023,05:29:10,0.001,0.0,0.0,0.0
09/10/2023,05:30:10,0.000,0.0,0.0,0.0
09/10/2023,05:31:10,0.001,0.0,0.0,0.0
09/10/2023,05:32:10,0.001,0.0,0.0,0.0
09/10/2023,05:33:10,0.001,0.0,0.0,0.0
09/10/2023,05:34:10,0.001,0.0,0.0,0.0
09/10/2023,05:35:10,0.001,0.0,0.0,0.0
09/10/2023,05:36:11,0.001,0.0,0.0,0.0
09/10/2023,05:37:10,0.001,0.0,0.0,0.0
09/10/2023,05:38:10,0.001,0.0,0.0,0.0
09/10/2023,05:39:10,0.001,0.0,0.0,0.0
09/10/2023,05:40:10,0.001,0.0,0.0,0.0
09/10/2023,05:41:10,0.001,0.0,0.0,0.0
09/10/2023,05:42:11,0.001,0.0,0.0,0.0
09/10/2023,05:43:10,0.001,0.0,0.0,0.0
09/10/2023,05:44:11,0.000,0.0,0.0,0.0
09/10/2023,05:45:10,0.000,0.0,0.0,0.0
09/10/2023,05:46:10,0.000,0.0,0.0,0.0
09/10/2023,05:47:10,0.001,0.0,0.0,0.0
09/10/2023,05:48:10,0.001,0.0,0.0,0.0
09/10/2023,05:49:11,0.001,0.0,0.0,0.0
09/10/2023,05:50:10,0.001,0.0,0.0,0.0
09/10/2023,05:51:10,0.000,0.0,0.0,0.0
09/10/2023,05:52:10,0.001,0.0,0.0,0.0
09/10/2023,05:53:10,0.001,0.0,0.0,0.0
09/10/2023,05:54:11,0.001,0.0,0.0,0.0
09/10/2023,05:55:10,0.001,0.0,0.0,0.0
09/10/2023,05:56:10,0.000,0.0,0.0,0.0
09/10/2023,05:57:10,0.001,0.0,0.0,0.0
09/10/2023,05:58:11,0.001,0.0,0.0,0.0
09/10/2023,05:59:10,0.001,0.0,0.0,0.0
09/10/2023,06:00:10,0.001,0.0,0.0,0.0
09/10/2023,06:01:10,0.000,0.0,0.0,0.0
09/10/2023,06:02:10,0.001,0.0,0.0,0.0
09/10/2023,06:03:11,0.001,0.0,0.0,0.0
09/10/2023,06:04:10,0.001,0.0,0.0,0.0
09/10/2023,06:05:10,0.001,0.0,0.0,0.0
09/10/2023,06:06:10,0.001,0.0,0.0,0.0
09/10/2023,06:07:10,0.001,0.0,0.0,0.0
09/10/2023,06:08:10,0.001,0.0,0.0,0.0
09/10/2023,06:09:10,0.001,0.0,0.0,0.0
09/10/2023,06:10:11,0.001,0.0,0.0,0.0
09/10/2023,06:11:10,0.002,0.0,0.0,0.0
09/10/2023,06:12:10,0.002,0.0,0.0,0.0
09/10/2023,06:13:10,0.000,0.0,0.0,0.0
09/10/2023,06:14:11,0.001,0.0,0.0,0.0
09/10/2023,06:15:10,0.001,0.0,0.0,0.0
09/10/2023,06:16:10,0.003,0.0,0.0,0.0
09/10/2023,06:17:10,0.003,0.0,0.0,0.0
09/10/2023,06:18:11,0.002,0.0,0.0,0.0
09/10/2023,06:19:10,0.003,0.0,0.0,0.0
09/10/2023,06:20:10,0.003,0.0,0.0,0.0
09/10/2023,06:21:10,0.003,0.0,0.0,0.0
09/10/2023,06:22:10,0.002,0.0,0.0,0.0
09/10/2023,06:23:11,0.003,0.0,0.0,0.0
09/10/2023,06:24:10,0.004,0.0,0.0,0.0
09/10/2023,06:25:11,0.004,0.0,0.0,0.0
09/10/2023,06:26:11,0.004,0.0,0.0,0.0
09/10/2023,06:27:11,0.004,0.0,0.0,0.0
09/10/2023,06:28:10,0.004,0.0,0.0,0.0
09/10/2023,06:29:10,0.005,0.0,0.0,0.0
09/10/2023,06:30:10,0.004,0.0,0.0,0.0
09/10/2023,06:31:11,0.006,0.0,0.0,0.0
09/10/2023,06:32:10,0.005,0.0,0.0,0.0
09/10/2023,06:33:11,0.006,0.0,0.0,0.0
09/10/2023,06:34:10,0.006,0.0,0.0,0.0
09/10/2023,06:35:10,0.006,0.0,0.0,0.0
09/10/2023,06:36:10,0.008,0.0,0.0,0.0
09/10/2023,06:37:10,0.007,0.0,0.0,0.0
09/10/2023,06:38:11,0.006,0.0,0.0,0.0
09/10/2023,06:39:11,0.008,0.0,0.001,0.001
09/10/2023,06:40:10,0.008,0.0,0.001,0.0
09/10/2023,06:41:11,0.008,0.0,0.001,0.0
09/10/2023,06:42:10,0.008,0.0,0.001,0.0
09/10/2023,06:43:10,0.009,0.0,0.001,0.0
09/10/2023,06:44:11,0.010,0.0,0.001,0.0
09/10/2023,06:45:10,0.009,0.0,0.001,0.0
09/10/2023,06:46:10,0.011,0.0,0.002,0.001
09/10/2023,06:47:10,0.010,0.0,0.002,0.0
09/10/2023,06:48:10,0.011,0.0,0.002,0.0
09/10/2023,06:49:10,0.010,0.0,0.002,0.0
09/10/2023,06:50:11,0.011,0.0,0.002,0.0
09/10/2023,06:51:10,0.012,0.0,0.003,0.001
09/10/2023,06:52:11,0.012,0.0,0.003,0.0
09/10/2023,06:53:10,0.012,0.0,0.003,0.0
09/10/2023,06:54:11,0.013,0.0,0.003,0.0
09/10/2023,06:55:11,0.013,0.0,0.003,0.0
09/10/2023,06:56:10,0.013,0.0,0.004,0.001
09/10/2023,06:57:11,0.014,0.0,0.004,0.0
09/10/2023,06:58:10,0.016,0.0,0.004,0.0
09/10/2023,06:59:11,0.016,0.0,0.004,0.0
09/10/2023,07:00:10,0.015,0.0,0.005,0.001
09/10/2023,07:01:10,0.017,0.0,0.005,0.0
09/10/2023,07:02:10,0.017,0.0,0.005,0.0
09/10/2023,07:03:10,0.018,0.0,0.005,0.0
09/10/2023,07:04:11,0.019,0.0,0.006,0.001
09/10/2023,07:05:11,0.018,0.0,0.006,0.0
09/10/2023,07:06:10,0.020,0.0,0.006,0.0
09/10/2023,07:07:10,0.021,0.0,0.007,0.001
09/10/2023,07:08:11,0.021,0.0,0.007,0.0
09/10/2023,07:09:11,0.022,0.0,0.007,0.0
09/10/2023,07:10:10,0.023,0.0,0.008,0.001
09/10/2023,07:11:11,0.023,0.0,0.008,0.0
09/10/2023,07:12:10,0.024,0.0,0.008,0.0
09/10/2023,07:13:11,0.023,0.0,0.009,0.001
09/10/2023,07:14:12,0.025,0.0,0.009,0.0
09/10/2023,07:15:10,0.025,0.0,0.01,0.001
09/10/2023,07:16:10,0.026,0.0,0.01,0.0
09/10/2023,07:17:10,0.028,0.0,0.011,0.001
09/10/2023,07:18:11,0.027,0.0,0.011,0.0
09/10/2023,07:19:10,0.027,0.0,0.012,0.001
09/10/2023,07:20:10,0.030,0.0,0.012,0.0
09/10/2023,07:21:11,0.029,0.0,0.012,0.0
09/10/2023,07:22:11,0.032,0.0,0.013,0.001
09/10/2023,07:23:10,0.033,0.0,0.014,0.001
09/10/2023,07:24:11,0.034,0.0,0.014,0.0
09/10/2023,07:25:11,0.038,0.0,0.015,0.001
09/10/2023,07:26:10,0.038,0.0,0.015,0.0
09/10/2023,07:27:10,0.040,0.0,0.016,0.001
09/10/2023,07:28:10,0.042,0.0,0.017,0.001
09/10/2023,07:29:10,0.045,0.0,0.017,0.0
09/10/2023,07:30:11,0.046,0.0,0.018,0.001
09/10/2023,07:31:10,0.047,0.0,0.019,0.001
09/10/2023,07:32:10,0.050,0.0,0.02,0.001
09/10/2023,07:33:10,0.051,0.0,0.021,0.001
09/10/2023,07:34:10,0.053,0.0,0.021,0.0
09/10/2023,07:35:11,0.054,0.0,0.022,0.001
09/10/2023,07:36:10,0.056,0.0,0.023,0.001
09/10/2023,07:37:11,0.057,0.0,0.024,0.001
09/10/2023,07:38:10,0.059,0.0,0.025,0.001
09/10/2023,07:39:11,0.060,0.0,0.026,0.001
09/10/2023,07:40:13,0.062,0.0,0.027,0.001
09/10/2023,07:41:11,0.063,0.0,0.028,0.001
09/10/2023,07:42:10,0.065,0.0,0.029,0.001
09/10/2023,07:43:10,0.064,0.0,0.03,0.001
09/10/2023,07:44:10,0.066,0.0,0.031,0.001
09/10/2023,07:45:10,0.067,0.0,0.033,0.002
09/10/2023,07:46:10,0.069,0.0,0.034,0.001
09/10/2023,07:47:11,0.070,0.0,0.035,0.001
09/10/2023,07:48:10,0.070,0.0,0.036,0.001
09/10/2023,07:49:10,0.071,0.0,0.037,0.001
09/10/2023,07:50:10,0.072,0.0,0.038,0.001
09/10/2023,07:51:11,0.073,0.0,0.04,0.002
09/10/2023,07:52:10,0.073,0.0,0.041,0.001
09/10/2023,07:53:10,0.073,0.0,0.042,0.001
09/10/2023,07:54:11,0.074,0.0,0.043,0.001
09/10/2023,07:55:11,0.076,0.0,0.044,0.001
09/10/2023,07:56:11,0.076,0.0,0.046,0.002
09/10/2023,07:57:10,0.077,0.0,0.047,0.001
09/10/2023,07:58:11,0.078,0.0,0.048,0.001
09/10/2023,07:59:10,0.079,0.0,0.05,0.002
09/10/2023,08:00:10,0.081,0.0,0.051,0.001
09/10/2023,08:01:10,0.082,0.0,0.052,0.001
09/10/2023,08:02:10,0.086,0.0,0.054,0.002
09/10/2023,08:03:11,0.087,0.0,0.055,0.001
09/10/2023,08:04:10,0.089,0.0,0.057,0.002
09/10/2023,08:05:11,0.093,0.0,0.058,0.001
09/10/2023,08:06:10,0.096,0.0,0.06,0.002
09/10/2023,08:07:11,0.100,0.0,0.061,0.001
09/10/2023,08:08:11,0.103,0.0,0.063,0.002
09/10/2023,08:09:10,0.107,0.0,0.065,0.002
09/10/2023,08:10:11,0.111,0.0,0.067,0.002
09/10/2023,08:11:10,0.115,0.0,0.068,0.001
09/10/2023,08:12:10,0.118,0.0,0.07,0.002
09/10/2023,08:13:10,0.123,0.0,0.072,0.002
09/10/2023,08:14:11,0.125,0.0,0.074,0.002
09/10/2023,08:15:10,0.130,0.0,0.077,0.003
09/10/2023,08:16:10,0.133,0.0,0.079,0.002
09/10/2023,08:17:10,0.136,0.0,0.081,0.002
09/10/2023,08:18:10,0.139,0.0,0.083,0.002
09/10/2023,08:19:10,0.143,0.0,0.086,0.003
09/10/2023,08:20:11,0.146,0.0,0.088,0.002
09/10/2023,08:21:11,0.150,0.0,0.091,0.003
09/10/2023,08:22:10,0.153,0.0,0.093,0.002
09/10/2023,08:23:11,0.157,0.0,0.096,0.003
09/10/2023,08:24:10,0.159,0.0,0.098,0.002
09/10/2023,08:25:10,0.161,0.0,0.101,0.003
09/10/2023,08:26:10,0.165,0.0,0.104,0.003
09/10/2023,08:27:10,0.168,0.0,0.106,0.002
09/10/2023,08:28:10,0.170,0.0,0.109,0.003
09/10/2023,08:29:11,0.173,0.0,0.112,0.003
09/10/2023,08:30:10,0.175,0.0,0.115,0.003
09/10/2023,08:31:11,0.176,0.0,0.118,0.003
09/10/2023,08:32:10,0.177,0.0,0.121,0.003
09/10/2023,08:33:11,0.178,0.0,0.124,0.003
09/10/2023,08:34:12,0.180,0.0,0.127,0.003
09/10/2023,08:35:11,0.183,0.0,0.13,0.003
09/10/2023,08:36:11,0.184,0.0,0.133,0.003
09/10/2023,08:37:11,0.187,0.0,0.136,0.003
09/10/2023,08:38:11,0.189,0.0,0.139,0.003
09/10/2023,08:39:10,0.192,0.0,0.142,0.003
09/10/2023,08:40:11,0.194,0.0,0.146,0.004
09/10/2023,08:41:10,0.196,0.0,0.149,0.003
09/10/2023,08:42:11,0.201,0.0,0.152,0.003
09/10/2023,08:43:10,0.204,0.0,0.155,0.003
09/10/2023,08:44:11,0.206,0.0,0.159,0.004
09/10/2023,08:45:10,0.212,0.0,0.162,0.003
09/10/2023,08:46:11,0.216,0.0,0.166,0.004
09/10/2023,08:47:10,0.221,1.0,0.17,0.004
09/10/2023,08:48:11,0.225,1.0,0.173,0.003
09/10/2023,08:49:10,0.229,1.0,0.177,0.004
09/10/2023,08:50:11,0.233,1.0,0.181,0.004
09/10/2023,08:51:10,0.236,1.0,0.185,0.004
09/10/2023,08:52:10,0.240,1.0,0.189,0.004
09/10/2023,08:53:11,0.246,1.0,0.193,0.004
09/10/2023,08:54:11,0.250,1.0,0.197,0.004
09/10/2023,08:55:10,0.255,1.0,0.201,0.004
09/10/2023,08:56:10,0.258,1.0,0.206,0.005
09/10/2023,08:57:11,0.262,1.0,0.21,0.004
09/10/2023,08:58:10,0.265,1.0,0.214,0.004
09/10/2023,08:59:10,0.268,1.0,0.219,0.005
09/10/2023,09:00:11,0.272,1.0,0.223,0.004
09/10/2023,09:01:11,0.275,1.0,0.228,0.005
09/10/2023,09:02:11,0.279,1.0,0.232,0.004
09/10/2023,09:03:11,0.284,1.0,0.237,0.005
09/10/2023,09:04:10,0.290,1.0,0.242,0.005
09/10/2023,09:05:11,0.295,1.0,0.247,0.005
09/10/2023,09:06:11,0.303,1.0,0.252,0.005
09/10/2023,09:07:10,0.312,1.0,0.257,0.005
09/10/2023,09:08:10,0.318,1.0,0.262,0.005
09/10/2023,09:09:10,0.326,1.0,0.268,0.006
09/10/2023,09:10:11,0.335,1.0,0.273,0.005
09/10/2023,09:11:11,0.333,1.0,0.279,0.006
09/10/2023,09:12:10,0.343,1.0,0.284,0.005
09/10/2023,09:13:11,0.349,1.0,0.29,0.006
09/10/2023,09:14:11,0.353,1.0,0.296,0.006
09/10/2023,09:15:10,0.357,1.0,0.302,0.006
09/10/2023,09:16:10,0.354,1.0,0.308,0.006
09/10/2023,09:17:10,0.349,1.0,0.314,0.006
09/10/2023,09:18:12,0.345,1.0,0.32,0.006
09/10/2023,09:19:10,0.346,1.0,0.325,0.005
09/10/2023,09:20:10,0.350,1.0,0.331,0.006
09/10/2023,09:21:10,0.360,1.0,0.337,0.006
09/10/2023,09:22:11,0.360,1.0,0.343,0.006
09/10/2023,09:23:11,0.365,1.0,0.349,0.006
09/10/2023,09:24:10,0.365,1.0,0.355,0.006
09/10/2023,09:25:10,0.364,1.0,0.361,0.006
09/10/2023,09:26:10,0.368,1.0,0.367,0.006
09/10/2023,09:27:10,0.376,1.0,0.373,0.006
09/10/2023,09:28:11,0.376,1.0,0.38,0.007
09/10/2023,09:29:11,0.376,1.0,0.386,0.006
09/10/2023,09:30:10,0.385,1.0,0.392,0.006
09/10/2023,09:31:11,0.384,1.0,0.399,0.007
09/10/2023,09:32:10,0.395,1.0,0.405,0.006
09/10/2023,09:33:11,0.395,1.0,0.412,0.007
09/10/2023,09:34:11,0.391,1.0,0.418,0.006
09/10/2023,09:35:11,0.395,1.0,0.425,0.007
09/10/2023,09:36:11,0.404,1.0,0.432,0.007
09/10/2023,09:37:11,0.410,1.0,0.438,0.006
09/10/2023,09:38:10,0.417,1.0,0.445,0.007
09/10/2023,09:39:10,0.423,1.0,0.452,0.007
09/10/2023,09:40:11,0.431,1.0,0.459,0.007
09/10/2023,09:41:10,0.434,1.0,0.467,0.008
09/10/2023,09:42:10,0.430,1.0,0.474,0.007
09/10/2023,09:43:11,0.435,1.0,0.481,0.007
09/10/2023,09:44:11,0.442,1.0,0.488,0.007
09/10/2023,09:45:11,0.451,1.0,0.496,0.008
09/10/2023,09:46:10,0.459,1.0,0.503,0.007
09/10/2023,09:47:10,0.461,1.0,0.511,0.008
09/10/2023,09:48:10,0.471,1.0,0.519,0.008
09/10/2023,09:49:11,0.479,1.0,0.527,0.008
09/10/2023,09:50:10,0.477,1.0,0.535,0.008
09/10/2023,09:51:11,0.478,1.0,0.543,0.008
09/10/2023,09:52:11,0.478,1.0,0.551,0.008
09/10/2023,09:53:10,0.480,1.0,0.559,0.008
09/10/2023,09:54:11,0.476,1.0,0.567,0.008
09/10/2023,09:55:11,0.487,1.0,0.575,0.008
09/10/2023,09:56:10,0.497,1.0,0.583,0.008
09/10/2023,09:57:10,0.511,1.0,0.591,0.008
09/10/2023,09:58:10,0.508,1.0,0.6,0.009
09/10/2023,09:59:11,0.514,1.0,0.608,0.008
09/10/2023,10:00:11,0.513,1.0,0.617,0.009
09/10/2023,10:01:10,0.533,1.0,0.626,0.009
09/10/2023,10:02:11,0.544,1.0,0.635,0.009
09/10/2023,10:03:11,0.553,1.0,0.644,0.009
09/10/2023,10:04:11,0.548,1.0,0.653,0.009
09/10/2023,10:05:10,0.553,1.0,0.662,0.009
09/10/2023,10:06:11,0.558,1.0,0.671,0.009
09/10/2023,10:07:11,0.559,1.0,0.681,0.01
09/10/2023,10:08:10,0.570,1.0,0.69,0.009
09/10/2023,10:09:11,0.579,1.0,0.7,0.01
09/10/2023,10:10:10,0.575,1.0,0.709,0.009